Location: Emporia
(38.4040°N, 96.1810°W)
Time: 14:23:05
(UTC-05:00)

ISS - Visible Passes

Search period start: 05 July 2015 00:00
Search period end: 15 July 2015 00:00
Orbit: 398 x 403 km, 51.6° (Epoch: 05 July)

Date Brightness Start Highest point End Pass type
(mag) Time Alt. Az. Time Alt. Az. Time Alt. Az.
11 Jul -1.5 05:19:22 10° S 05:22:00 24° SE 05:24:42 10° ENE visible
12 Jul -0.7 04:27:31 10° SSE 04:28:34 12° SE 04:29:49 10° ESE visible
13 Jul -3.1 05:08:40 17° SW 05:11:00 60° SE 05:14:13 10° ENE visible
14 Jul -2.0 04:17:11 27° SE 04:17:28 27° SE 04:20:18 10° ENE visible
